Orbital Elements at Epoch 2459200.5 (2020-Dec-17.0) TDB
Reference: JPL 24 (heliocentric ecliptic J2000)
Element | Value | Uncertainty (1-sigma) | Units |
e | .1805718699254301 | 6.4503e-08 | |
a | 2.536259589031417 | 9.2829e-09 | au |
q | 2.078282452423711 | 1.6688e-07 | au |
i | 2.175826460958031 | 5.8708e-06 | deg |
node | 214.6896686514392 | 8.3748e-05 | deg |
peri | 185.1054706343577 | 8.4758e-05 | deg |
M | 181.0432823286931 | 1.2053e-05 | deg |
tp | 2459933.889156943987 (2022-Dec-20.38915694) | 5.1844e-05 | TDB |
period | 1475.329341839884 4.04 | 8.0997e-06 2.218e-08 | d yr |
n | .2440133126824711 | 1.3397e-09 | deg/d |
Q | 2.994236725639122 | 1.0959e-08 | au |
|
| | Orbit Determination Parameters
Additional Information
|